Home > Weather > Suzhou > Past weeks

Flag for China Past Weather in Suzhou, Jiangsu, China — Yesterday and Last 2 Weeks

Now
70 °F

Light rain. Fog.


Feels Like: 70 °F
Forecast: 65 / 80 °F
Wind: 8 mph from Northwest

Location: Shanghai Hongqiao Airport

Current Time: May 29, 2016 at 11:58:14 AM

Latest Report: May 29, 2016 at 11:30 AM


Visibility: 2 mi

Pressure: 29.74 "Hg

Humidity: 94%

Dew Point: 68 °F

Location of SuzhouLocation

Past Weather in Suzhou — Graph

°F

Suzhou Temperature Yesterday

Maximum temperature yesterday: 70 °F (at 12:00 AM)
Minimum temperature yesterday: 68 °F (at 12:30 AM)
Average temperature yesterday: 69 °F

High & Low Weather Summary for the Past Weeks

 TemperatureHumidityPressure
High86 °F (May 25, 1:00 PM)100% (May 21, 2:00 AM)30.09 "Hg (May 21, 2:00 AM)
Low57 °F (May 15, 8:00 PM)19% (May 17, 3:30 PM)29.65 "Hg (May 29, 2:00 AM)
Average70 °F76%29.88 "Hg
* Reported May 14 10:00 AM — May 29 10:30 AM, Suzhou, Weather by CustomWeather, © 2016

Note: Actual official high and low records may vary slightly from our data, if they occured in-between our weather recording intervals... More about our weather records

Advertising

Suzhou Weather History for the Previous 24 Hours

Scroll right to see more
 ConditionsComfort  
Time TempWeatherWind HumidityBarometerVisibility
10:30 AM
Sun, May 29
70 °FLight rain. Fog.6 mph94%29.74 "Hg2 mi
10:00 AM70 °FLight rain. Fog.10 mph94%29.71 "Hg2 mi
9:30 AM70 °FLight rain. Partly sunny.8 mph94%29.71 "Hg4 mi
9:00 AM70 °FLight rain. Partly sunny.8 mph94%29.71 "Hg4 mi
8:30 AM70 °FSprinkles. Partly sunny.8 mph94%29.71 "Hg4 mi
8:00 AM70 °FSprinkles. Fog.8 mph94%29.71 "Hg2 mi
7:30 AM70 °FSprinkles. Fog.8 mph94%29.71 "Hg1 mi
7:00 AM70 °FSprinkles. Fog.8 mph94%29.71 "Hg1 mi
6:30 AM70 °FFog.8 mph94%29.68 "Hg1 mi
6:00 AM70 °FFog.6 mph94%29.68 "Hg1 mi
5:30 AM70 °FFog.6 mph94%29.65 "Hg1 mi
5:00 AM70 °FFog.6 mph94%29.65 "Hg1 mi
4:30 AM70 °FFog.6 mph94%29.65 "Hg1 mi
4:00 AM70 °FFog.3 mph94%29.65 "Hg1 mi
3:30 AM70 °FFog.3 mph94%29.65 "Hg1 mi
3:00 AM70 °FFog.3 mph94%29.65 "Hg2 mi
2:30 AM70 °FFog.3 mph94%29.65 "Hg2 mi
2:00 AM70 °FFog.6 mph94%29.65 "Hg2 mi
1:30 AM70 °FFog.3 mph94%29.68 "Hg3 mi
1:00 AM70 °FFog.1 mph94%29.68 "Hg3 mi
12:30 AM70 °FFog.No wind94%29.68 "Hg3 mi
12:00 AM70 °FFog.No wind94%29.71 "Hg3 mi
11:30 PM
Sat, May 28
70 °FLight rain. Fog.3 mph94%29.71 "Hg3 mi
11:00 PM70 °FLight rain. Fog.3 mph94%29.71 "Hg3 mi
10:30 PM70 °FLight rain. Fog.3 mph94%29.71 "Hg3 mi
10:00 PM70 °FLight rain. Fog.3 mph94%29.71 "Hg3 mi
9:30 PM70 °FLight rain. Fog.3 mph94%29.71 "Hg3 mi
9:00 PM70 °FLight rain. Fog.3 mph94%29.71 "Hg3 mi
8:30 PM70 °FLight rain. Fog.3 mph94%29.71 "Hg3 mi
8:00 PM70 °FLight rain. Fog.1 mph94%29.71 "Hg3 mi
7:30 PM70 °FPassing clouds.1 mph94%29.71 "Hg4 mi
7:00 PM70 °FLight rain. Passing clouds.No wind94%29.71 "Hg4 mi
6:30 PM70 °FLight rain. Fog.1 mph94%29.68 "Hg3 mi
6:00 PM70 °FLight rain. Fog.3 mph94%29.71 "Hg3 mi
5:30 PM70 °FSprinkles. Fog.1 mph94%29.71 "Hg3 mi
5:00 PM70 °FSprinkles. Fog.1 mph94%29.71 "Hg3 mi
4:30 PM70 °FSprinkles. Fog.1 mph94%29.71 "Hg3 mi
4:00 PM70 °FSprinkles. Fog.1 mph94%29.71 "Hg3 mi
3:30 PM70 °FSprinkles. Fog.3 mph94%29.71 "Hg3 mi
3:00 PM70 °FSprinkles. Fog.3 mph94%29.71 "Hg3 mi
2:30 PM70 °FSprinkles. Fog.No wind94%29.71 "Hg3 mi
2:00 PM70 °FSprinkles. Fog.3 mph94%29.71 "Hg3 mi
1:30 PM70 °FSprinkles. Fog.3 mph94%29.71 "Hg3 mi
1:00 PM70 °FSprinkles. Fog.3 mph94%29.71 "Hg3 mi
12:30 PM70 °FSprinkles. Fog.3 mph94%29.71 "Hg3 mi
12:00 PM70 °FRain showers. Fog.1 mph94%29.74 "Hg3 mi
11:30 AM70 °FLight rain. Partly sunny.3 mph94%29.74 "Hg4 mi
11:00 AM70 °FLight rain. Partly sunny.6 mph94%29.74 "Hg4 mi
Weather by CustomWeather, © 2016

See weather overviewHow to use our weather pages